"Pseudo-MPEC" for P22hGik

Created 2025 Dec 8 7:35:09 UT using Find_Orb

Click here for an explanation of pseudo-MPECs

 
 Astrometry: 
     P22hGik* C2025 11 24.48368406 13 50.086+51 07 21.80   ~BOE5 22.10wXNEOCPF52
     P22hGik  C2025 11 24.49537306 13 46.369+51 06 56.68   ~BOE5 21.42wXNEOCPF52
     P22hGik  C2025 11 24.50692806 13 42.706+51 06 32.12   ~BOE5 22.19wXNEOCPF52
     P22hGik  C2025 11 24.51848006 13 39.050+51 06 07.24   ~BOE5 22.16wXNEOCPF52
     P22hGik  C2025 11 24.62872906 13 04.223+51 02 07.70   ~BOIK 21.77GVNEOCPF52
     P22hGik  C2025 11 24.62936706 13 03.974+51 02 06.06   ~BOIK 21.88GVNEOCPF52
     P22hGik  C2025 11 24.63013906 13 03.776+51 02 04.78   ~BOIK 21.80GVNEOCPF52
     P22hGik  C2025 11 24.63080406 13 03.566+51 02 03.08   ~BOIK 21.65GVNEOCPF52
     P22hGik KC2025 11 25.23393706 10 03.112+50 40 13.58   ~BP6K 21.61GVNEOCPV06
     P22hGik KC2025 11 25.23572406 10 02.564+50 40 09.98   ~BP6K 21.86GVNEOCPV06
     P22hGik KC2025 11 25.23751306 10 02.046+50 40 06.10   ~BP6K 21.45GVNEOCPV06
     P22hGik KC2025 11 25.23930206 10 01.488+50 40 02.17   ~BP6K 21.75GVNEOCPV06
     P22hGik KC2025 11 26.25808606 04 59.862+50 02 44.56   ~BQ6Z 22.05GVNEOCPV06
     P22hGik KC2025 11 26.25987206 04 59.354+50 02 40.67   ~BQ6Z 21.89GVNEOCPV06
     P22hGik KC2025 11 26.26166106 04 58.796+50 02 36.96   ~BQ6Z 21.92GVNEOCPV06
     P22hGik KC2025 11 26.26344706 04 58.264+50 02 33.00   ~BQ6Z 21.91GVNEOCPV06

Station data:
(F52) Pan-STARRS 2, Haleakala  (N20.707382 W156.255910)  US/Hawaii.
   Observers J. Herman, T. Lowe, P. Minguez, A. Schultz, I. Smith. Measurers
   K. Chambers, T. de Boer, J. Fairlamb, H. Gao, M. Huber, C.-C. Lin, E.
   Magnier, Y. Ramanjooloo, R. Wainscoat, R. Weryk. 1.8-m Ritchey-Chrétien +
   CCD.
(V06) Catalina Sky Survey-Kuiper  (N32.416871 W110.732550)  US/Arizona.
   Measurers T. Beuden, V. F. Carvajal, D. Fay, J. B. Fazekas, D. C. Fuls, A.
   R. Gibbs, A. D. Grauer, H. Gröller, J. K. Hogan, R. A. Kowalski, S. M.
   Larson, G. J. Leonard, D. Rankin, R. L. Seaman, F. C. Shelly, K. W.
   Wierzchoś. 1.55-m reflector + CCD.

Orbital elements:  P22hGik
   Perihelion 2025 Sep 3.767312 +/- 0.22 TT = 18:24:55.7 (JD 2460922.267312)
Epoch 2025 Nov 26.0 TT = JDT 2461005.5   Earth MOID: 0.0617      AutoNEOCP
M  20.589275537 +/- 0.6             (J2000 ecliptic)
n   0.247370066 +/- 0.00715         Peri.   55.964347 +/- 0.12
a   2.513263084 +/- 0.0484          Node   275.990739 +/- 0.17
e   0.69884338 +/- 0.00639          Incl.   22.547877 +/- 0.31
P   3.98434                H 21.48  G  0.15   U  9.4
q 0.756885802 +/- 0.00151    Q 4.269640366 +/- 0.0983
From 16 observations 2025 Nov. 24-26 (42.7 hr); mean residual 0".12
Residuals in arcseconds: 
251124 F52  .02+  .13+    251124 F52  .08+  .22+    251126 V06  .04-  .08-    
251124 F52  .05-  .10-    251124 F52  .07+  .02-    251126 V06  .19+  .10-    
251124 F52  .00   .02+    251125 V06  .14-  .00     251126 V06  .04-  .08+    
251124 F52  .09+  .11-    251125 V06  .15-  .19+    251126 V06  .04-  .00     
251124 F52  .13+  .03+    251125 V06  .13+  .10+    
251124 F52  .33-  .20-    251125 V06  .03+  .03-    

Ephemerides (geocentric):
Date (UTC) HH   RA             Dec           delta  r     elong  mag " sig PA
---- --------  ------------   ------------  ------ ------ -----  --- --------
2025 12 08 08  05 17 21.304   +42 15 19.02  .60322 1.5658 160.1 22.1 6.53  29
2025 12 08 09  05 17 13.664   +42 13 42.76  .60357 1.5662 160.2 22.1 6.56  29
2025 12 08 10  05 17 06.037   +42 12 06.52  .60391 1.5667 160.2 22.1 6.59  29
2025 12 08 11  05 16 58.425   +42 10 30.32  .60426 1.5671 160.2 22.1 6.61  28
2025 12 08 12  05 16 50.827   +42 08 54.16  .60461 1.5675 160.3 22.1 6.64  28
2025 12 08 13  05 16 43.243   +42 07 18.03  .60495 1.5680 160.3 22.1 6.67  28
2025 12 08 14  05 16 35.674   +42 05 41.93  .60530 1.5684 160.4 22.1 6.70  28
2025 12 08 15  05 16 28.119   +42 04 05.87  .60565 1.5688 160.4 22.1 6.72  28
2025 12 08 16  05 16 20.578   +42 02 29.84  .60600 1.5692 160.4 22.1 6.75  28
2025 12 08 17  05 16 13.051   +42 00 53.85  .60635 1.5697 160.5 22.1 6.78  28
2025 12 08 18  05 16 05.538   +41 59 17.89  .60670 1.5701 160.5 22.1 6.81  28
2025 12 08 19  05 15 58.040   +41 57 41.97  .60705 1.5705 160.6 22.1 6.83  28
2025 12 08 20  05 15 50.555   +41 56 06.08  .60740 1.5709 160.6 22.1 6.86  27
2025 12 08 21  05 15 43.085   +41 54 30.23  .60775 1.5714 160.6 22.1 6.89  27
2025 12 08 22  05 15 35.629   +41 52 54.42  .60810 1.5718 160.7 22.1 6.92  27
2025 12 08 23  05 15 28.187   +41 51 18.64  .60845 1.5722 160.7 22.1 6.94  27
2025 12 09 00  05 15 20.759   +41 49 42.91  .60880 1.5726 160.8 22.1 6.97  27
2025 12 09 01  05 15 13.345   +41 48 07.20  .60916 1.5731 160.8 22.1 7.00  27
2025 12 09 02  05 15 05.945   +41 46 31.54  .60951 1.5735 160.8 22.1 7.02  27
2025 12 09 03  05 14 58.559   +41 44 55.91  .60987 1.5739 160.9 22.1 7.05  27
2025 12 09 04  05 14 51.187   +41 43 20.32  .61022 1.5743 160.9 22.1 7.08  26
2025 12 09 05  05 14 43.830   +41 41 44.77  .61058 1.5748 161.0 22.1 7.11  26
2025 12 09 06  05 14 36.486   +41 40 09.26  .61093 1.5752 161.0 22.1 7.13  26
2025 12 09 07  05 14 29.156   +41 38 33.79  .61129 1.5756 161.0 22.1 7.16  26
2025 12 09 08  05 14 21.841   +41 36 58.35  .61164 1.5761 161.1 22.1 7.19  26
2025 12 09 09  05 14 14.539   +41 35 22.96  .61200 1.5765 161.1 22.1 7.21  26
2025 12 09 10  05 14 07.251   +41 33 47.60  .61236 1.5769 161.1 22.1 7.24  26
2025 12 09 11  05 13 59.977   +41 32 12.29  .61272 1.5773 161.2 22.1 7.27  26
2025 12 09 12  05 13 52.717   +41 30 37.01  .61308 1.5778 161.2 22.1 7.29  25
2025 12 09 13  05 13 45.471   +41 29 01.77  .61344 1.5782 161.3 22.1 7.32  25
2025 12 09 14  05 13 38.239   +41 27 26.58  .61380 1.5786 161.3 22.1 7.35  25
2025 12 09 15  05 13 31.021   +41 25 51.42  .61416 1.5790 161.3 22.1 7.37  25
2025 12 09 16  05 13 23.816   +41 24 16.31  .61452 1.5795 161.4 22.1 7.40  25
2025 12 09 17  05 13 16.626   +41 22 41.23  .61488 1.5799 161.4 22.1 7.43  25
2025 12 09 18  05 13 09.449   +41 21 06.20  .61524 1.5803 161.4 22.1 7.45  25
2025 12 09 19  05 13 02.286   +41 19 31.21  .61560 1.5807 161.5 22.1 7.48  25
2025 12 09 20  05 12 55.137   +41 17 56.26  .61597 1.5812 161.5 22.1 7.51  24
2025 12 09 21  05 12 48.002   +41 16 21.35  .61633 1.5816 161.5 22.1 7.53  24
2025 12 09 22  05 12 40.881   +41 14 46.49  .61670 1.5820 161.6 22.1 7.56  24
2025 12 09 23  05 12 33.773   +41 13 11.66  .61706 1.5824 161.6 22.1 7.59  24
2025 12 10 00  05 12 26.679   +41 11 36.88  .61743 1.5829 161.6 22.1 7.61  24
2025 12 10 01  05 12 19.599   +41 10 02.15  .61779 1.5833 161.7 22.1 7.64  24
2025 12 10 02  05 12 12.533   +41 08 27.45  .61816 1.5837 161.7 22.1 7.67  24
2025 12 10 03  05 12 05.480   +41 06 52.80  .61852 1.5841 161.7 22.1 7.69  23
2025 12 10 04  05 11 58.441   +41 05 18.20  .61889 1.5846 161.8 22.1 7.72  23
2025 12 10 05  05 11 51.416   +41 03 43.63  .61926 1.5850 161.8 22.1 7.75  23
2025 12 10 06  05 11 44.404   +41 02 09.11  .61963 1.5854 161.8 22.1 7.77  23
2025 12 10 07  05 11 37.406   +41 00 34.64  .62000 1.5858 161.9 22.1 7.80  23